Location: Ripley
(48.3812°N, 115.4473°W)
Time: 23:42:27
(UTC+00:00)

EO-79 - Pass Details

Date: 06 July 2022
Orbit: 588 x 603 km, 98.0° (Epoch: 18 August)

Event Time Altitude Azimuth Distance (km) Brightness Sun altitude
Rises 09:48:58 0° 10° (N) 2,862 ? -13.9°
Reaches altitude 10° 09:51:09 10° 8° (N) 1,957 ? -13.7°
Maximum altitude 09:55:21 64° 287° (WNW) 674 ? -13.3°
Enters shadow 09:58:07 21° 211° (SSW) 1,385 ? -13.1°
